Alesund/Vigra, Norway

2:04 AM CET on February 28, 2017 (GMT +0100)
Alesund

Weather History for ENAL - November, 2012

Change the Weather History Date:

Friday, November 23, 2012

  Actual Average Record
Temperature  
Mean Temperature 48 °F -  
Max Temperature 55 °F 40 °F 55 °F (2012)
Min Temperature 42 °F 36 °F 32 °F (2001)
Degree Days  
Heating Degree Days 16    
Moisture  
Dew Point 39 °F    
Average Humidity 70    
Maximum Humidity 93    
Minimum Humidity 43    
Precipitation  
Precipitation 0.00 in - - ()
Sea Level Pressure  
Sea Level Pressure 29.48 in    
Wind  
Wind Speed 12 mph ()    
Max Wind Speed 18 mph    
Max Gust Speed -    
Visibility 6.5 miles    
Events Rain    
Averages and records for this station are not official NWS values.
T = Trace of Precipitation, MM = Missing Value Source: Averaged Metar Reports

Daily Weather History Graph

Daily Weather History Graph

Search for Another Location

Airport or City:

Trip Planner

Search our weather history database for the weather conditions in past years. The results will help you decide how hot, cold, wet, or windy it might be!

Date:

Astronomy

Nov. 23, 2012 Rise Set
Actual Time 9:14 AM CET 3:28 PM CET
Civil Twilight 8:15 AM CET 4:27 PM CET
Nautical Twilight 7:16 AM CET 5:26 PM CET
Astronomical Twilight 6:22 AM CET 6:20 PM CET
Moon 1:53 PM CET (11/23) 2:52 AM CET (11/23)
Length of Visible Light 8h 12m
Length of Day
6h 13m
Waxing Gibbous, 77% of the Moon is Illuminated
Nov 23
Waxing Gibbous
Nov 28
Full
Dec 6
Last Quarter
Dec 13
New
Dec 20
First Quarter

Hourly Weather History & Observations

Time (CET) Temp. Windchill Dew Point Humidity Pressure Visibility Wind Dir Wind Speed Gust Speed Precip Events Conditions
12:20 AM 48.2 °F - 35.6 °F 62% 29.50 in 6.2 mi ESE 12.7 mph - N/A   Unknown
12:50 AM 48.2 °F - 35.6 °F 62% 29.47 in 6.2 mi ESE 13.8 mph - N/A   Unknown
1:00 AM 49 °F - 35 °F 48% 29.49 in - SE 15.7 mph - -  
1:20 AM 50.0 °F - 35.6 °F 58% 29.47 in 6.2 mi SE 18.4 mph - N/A   Unknown
1:50 AM 51.8 °F - 35.6 °F 54% 29.44 in 6.2 mi SE 17.3 mph - N/A   Partly Cloudy
2:20 AM 53.6 °F - 35.6 °F 51% 29.42 in 6.2 mi ESE 17.3 mph - N/A   Partly Cloudy
2:50 AM 53.6 °F - 35.6 °F 51% 29.42 in 6.2 mi ESE 16.1 mph - N/A   Partly Cloudy
3:20 AM 53.6 °F - 35.6 °F 51% 29.42 in 6.2 mi SE 17.3 mph - N/A   Partly Cloudy
3:50 AM 53.6 °F - 35.6 °F 51% 29.42 in 6.2 mi SE 13.8 mph - N/A   Partly Cloudy
4:20 AM 53.6 °F - 35.6 °F 51% 29.39 in 6.2 mi ESE 12.7 mph - N/A   Unknown
4:50 AM 51.8 °F - 35.6 °F 54% 29.39 in 6.2 mi SSE 8.1 mph - N/A   Unknown
5:20 AM 51.8 °F - 37.4 °F 58% 29.39 in 6.2 mi SE 8.1 mph - N/A   Partly Cloudy
5:50 AM 48.2 °F - 37.4 °F 66% 29.39 in 6.2 mi SSW 3.5 mph - N/A   Partly Cloudy
6:20 AM 51.8 °F - 37.4 °F 58% 29.39 in 6.2 mi SW 6.9 mph - N/A   Partly Cloudy
6:50 AM 53.6 °F - 37.4 °F 54% 29.39 in 6.2 mi SSW 12.7 mph - N/A   Partly Cloudy
7:00 AM 54 °F - 38 °F 43% 29.40 in 47 mi SSW 13.4 mph - -   Partly Cloudy
7:20 AM 55.4 °F - 37.4 °F 51% 29.39 in 6.2 mi SSW 10.4 mph - N/A   Partly Cloudy
8:20 AM 53.6 °F - 37.4 °F 54% 29.39 in 6.2 mi SSW 10.4 mph - N/A   Mostly Cloudy
8:50 AM 48.2 °F - 42.8 °F 82% 29.42 in 6.2 mi West 15.0 mph - N/A   Mostly Cloudy
9:20 AM 48.2 °F - 42.8 °F 82% 29.42 in 6.2 mi WSW 17.3 mph - N/A Rain Light Rain
9:50 AM 48.2 °F - 42.8 °F 82% 29.42 in 6.2 mi WSW 17.3 mph - N/A Rain Light Rain
10:20 AM 46.4 °F 39.8 °F 42.8 °F 87% 29.42 in 6.2 mi WSW 16.1 mph - N/A   Light Drizzle
10:50 AM 46.4 °F 40.7 °F 42.8 °F 87% 29.44 in 6.2 mi West 12.7 mph - N/A Rain Light Rain
11:20 AM 46.4 °F 41.9 °F 42.8 °F 87% 29.44 in 6.2 mi West 9.2 mph - N/A   Light Drizzle
11:50 AM 46.4 °F 41.1 °F 42.8 °F 87% 29.44 in 6.2 mi WSW 11.5 mph - N/A Rain Light Rain
12:20 PM 46.4 °F 41.5 °F 41.0 °F 81% 29.44 in 6.2 mi WSW 10.4 mph - N/A Rain Light Rain
12:50 PM 46.4 °F 41.9 °F 42.8 °F 87% 29.44 in 6.2 mi WSW 9.2 mph - N/A Rain Light Rain
1:00 PM 45 °F - 42 °F 86% 29.47 in 19 mi WSW 11.2 mph - - Rain Light Rain
1:50 PM 44.6 °F 39.2 °F 42.8 °F 93% 29.47 in 6.2 mi SW 10.4 mph - N/A Rain Light Rain
2:20 PM 44.6 °F 40.7 °F 42.8 °F 93% 29.47 in 6.2 mi WSW 6.9 mph - N/A   Mostly Cloudy
2:50 PM 46.4 °F 43.5 °F 42.8 °F 87% 29.50 in 6.2 mi WSW 5.8 mph - N/A   Mostly Cloudy
3:20 PM 46.4 °F 44.3 °F 41.0 °F 81% 29.50 in 6.2 mi South 4.6 mph - N/A   Light Drizzle
3:50 PM 46.4 °F 41.9 °F 41.0 °F 81% 29.47 in 6.2 mi SSE 9.2 mph - N/A   Mostly Cloudy
4:20 PM 46.4 °F 41.9 °F 41.0 °F 81% 29.50 in 6.2 mi South 9.2 mph - N/A   Mostly Cloudy
4:50 PM 46.4 °F 40.7 °F 41.0 °F 81% 29.47 in 6.2 mi SSE 12.7 mph - N/A   Mostly Cloudy
5:20 PM 46.4 °F 40.7 °F 41.0 °F 81% 29.50 in 6.2 mi SSE 12.7 mph - N/A   Mostly Cloudy
5:50 PM 48.2 °F - 37.4 °F 66% 29.50 in 6.2 mi South 10.4 mph - N/A   Mostly Cloudy
6:20 PM 46.4 °F 41.9 °F 37.4 °F 71% 29.50 in 6.2 mi South 9.2 mph - N/A   Scattered Clouds
6:50 PM 46.4 °F 42.4 °F 37.4 °F 71% 29.50 in 6.2 mi South 8.1 mph - N/A   Scattered Clouds
7:00 PM 47 °F - 37 °F 58% 29.53 in 47 mi SSW 6.7 mph - - Rain Light Rain
7:20 PM 48.2 °F - 37.4 °F 66% 29.53 in 6.2 mi South 9.2 mph - N/A   Partly Cloudy
7:50 PM 50.0 °F - 35.6 °F 58% 29.53 in 6.2 mi South 11.5 mph - N/A   Scattered Clouds
8:20 PM 48.2 °F - 37.4 °F 66% 29.56 in 6.2 mi SSW 15.0 mph - N/A   Scattered Clouds
8:50 PM 46.4 °F 40.7 °F 39.2 °F 76% 29.56 in 6.2 mi SSW 12.7 mph - N/A Rain Light Rain
9:20 PM 46.4 °F 40.4 °F 39.2 °F 76% 29.59 in 6.2 mi South 13.8 mph - N/A   Light Drizzle
9:50 PM 46.4 °F 41.1 °F 37.4 °F 71% 29.62 in 6.2 mi South 11.5 mph - N/A   Light Drizzle
10:20 PM 46.4 °F 41.1 °F 37.4 °F 71% 29.62 in 6.2 mi South 11.5 mph - N/A   Scattered Clouds
10:50 PM 46.4 °F 41.5 °F 37.4 °F 71% 29.62 in 6.2 mi South 10.4 mph - N/A   Light Drizzle
11:20 PM 44.6 °F 37.4 °F 37.4 °F 76% 29.65 in 6.2 mi South 16.1 mph - N/A   Scattered Clouds
11:50 PM 44.6 °F 38.1 °F 37.4 °F 76% 29.65 in 6.2 mi South 13.8 mph - N/A   Light Drizzle